Location: Young's Pond
(41.2695°N, 72.7766°W)
Time: 07:08:58
(UTC-04:00)

Daily predictions for brighter satellites

Satellite Brightness Start Highest point End
(mag) Time Altitude Azimuth Time Altitude Azimuth Time Altitude Azimuth
COSMOS 2406 4.0 20:37:30 10° N 20:42:52 38° ENE 20:48:10 10° SE
SPOT 5 4.2 20:41:17 10° SE 20:45:44 29° ENE 20:50:18 10° N
ERS-1 Rocket 3.1 20:44:16 10° SSE 20:49:13 62° ENE 20:54:12 10° N
SJ-11-01 4.4 20:44:59 10° SSE 20:49:41 63° ENE 20:54:23 10° N
Cosmos 1869 Rocket 4.3 20:46:23 10° SSW 20:50:44 57° W 20:55:04 10° N
H-2A R/B 2.7 20:47:57 10° SE 20:52:00 39° ENE 20:55:59 10° N
Cosmos 1356 Rocket 3.7 20:49:30 10° SSE 20:53:32 47° E 20:57:39 10° NNE
ALOS 3.4 20:52:04 10° S 20:56:32 44° W 21:01:01 10° NNW
Resurs 01 Rocket 4.4 20:54:21 10° SW 20:56:59 16° W 20:59:39 10° NW
ATLAS 5 CENTAUR R/B 2.8 20:53:19 10° NNW 20:59:10 55° NE 21:05:21 10° SE
USA 234 4.2 20:59:44 10° ENE 21:04:43 23° ESE 21:09:41 10° S
Cosmos 2278 Rocket 3.7 21:02:03 10° SE 21:05:20 16° E 21:08:38 10° ENE
Sich 1 Rocket 4.4 21:06:06 10° SSE 21:10:15 35° E 21:14:24 10° NNE
PSLV R/B 3.3 21:07:21 10° W 21:10:48 77° S 21:13:55 13° ESE
Meteor 2-3 Rocket 4.1 21:07:22 10° SSW 21:12:58 70° W 21:18:35 10° N
Okean 1-7 4.4 21:09:26 10° NNW 21:13:28 40° W 21:17:30 10° SSW
Abrixas rocket 2.8 21:11:00 10° WNW 21:14:19 48° SW 21:16:54 15° SE
CZ-4 DEB 4.3 21:13:34 10° SSW 21:16:30 34° W 21:19:27 10° NNW
Cosmos 1844 Rocket 3.0 21:13:23 10° S 21:18:42 44° ESE 21:24:02 10° NE
Cosmos 2056 Rocket 3.4 21:13:48 10° S 21:18:55 66° ESE 21:24:01 10° NNE
Meteor 1-27 Rocket 4.2 21:14:40 10° N 21:19:58 41° ENE 21:24:15 15° SE
Cosmos 1371 Rocket 4.1 21:15:33 10° SSW 21:20:53 87° WNW 21:26:13 10° NNE
Cosmos 1674 Rocket 3.7 21:16:29 10° N 21:20:55 59° E 21:24:53 12° SSE
Cosmos 1825 3.6 21:19:37 16° SE 21:21:25 22° E 21:24:24 10° NE
Cosmos 1340 Rocket 3.9 21:19:17 10° SSW 21:23:07 48° WNW 21:27:02 10° N
Cosmos 2082 Rocket 4.4 21:20:58 10° NNE 21:23:21 13° NE 21:25:44 10° ENE
Cosmos 1939 Rocket 3.0 21:22:01 10° S 21:25:50 71° WSW 21:29:45 10° NNW
Cosmos 1461 4.2 21:21:54 10° SW 21:26:27 49° NW 21:30:52 10° NNE
Atlas Centaur 2 2.9 21:26:42 10° SSW 21:28:52 15° S 21:29:20 15° SSE
Cosmos 1782 2.8 21:25:32 10° N 21:29:34 73° E 21:32:54 15° SSE
Cosmos 1184 Rocket 4.4 21:30:38 18° E 21:31:03 18° E 21:33:24 10° NE
Cosmos 2263 Rocket 4.2 21:28:35 10° WSW 21:33:38 33° WNW 21:38:42 10° N
CENTAUR R/B 3.3 21:28:23 10° NW 21:36:14 72° WSW 21:43:29 14° SSE
COSMOS 2487 4.3 21:35:38 10° NNE 21:38:23 20° ENE 21:39:40 17° E
MetOp-A 4.1 21:35:01 15° SSE 21:39:27 74° ENE 21:44:49 10° N
Cosmos 2154 Rocket 4.0 21:33:47 10° S 21:39:54 62° E 21:46:01 10° NNE
SL-27 R/B 2.4 21:36:47 10° NNW 21:40:27 83° ENE 21:42:35 23° SSE
YAOGAN 6 2.6 21:40:07 24° SSE 21:42:02 60° ENE 21:45:31 10° N
Cosmos 1408 3.2 21:40:58 25° SE 21:42:33 37° E 21:45:57 10° NNE
SL-8 R/B 3.6 21:37:52 10° WSW 21:42:41 88° SSE 21:47:32 10° ENE
NOSS 2-2 (D) 3.8 21:40:20 10° SW 21:44:26 74° NW 21:49:14 10° NNE
Coronas F rocket 3.7 21:43:06 10° SW 21:45:19 24° WNW 21:47:34 10° NNW
deb Chang Zheng 4 4.4 21:43:24 10° N 21:47:41 53° WNW 21:51:59 10° SSW
COS B Rocket 3.3 21:43:48 10° N 21:48:05 82° E 21:50:52 19° S
Cosmos 1975 Rocket 3.8 21:44:29 10° N 21:48:30 36° ENE 21:50:14 26° ESE
SL-08 RB Rocket 4.3 21:46:49 24° SE 21:49:08 41° ENE 21:53:28 10° N
NOAA 11 4.5 21:47:01 22° SE 21:50:29 54° ENE 21:55:51 10° N
Cosmos 1606 2.7 21:48:14 10° N 21:52:11 80° E 21:54:20 26° SSE
Okean 3 3.7 21:51:37 10° N 21:55:50 52° E 21:57:39 30° SE
Cosmos 1908 Rocket 3.5 21:53:55 14° S 21:57:44 89° ESE 22:02:11 10° N
H-2A R/B 3.0 21:56:03 23° ESE 21:58:38 35° ENE 22:03:26 10° N
Envisat 4.0 21:54:19 10° S 21:59:08 43° W 22:03:59 10° NNW
NOSS 2-2 (C) 4.4 21:55:08 10° SW 21:59:10 53° NW 22:03:55 10° NNE
USA 245 2.6 21:58:30 44° SE 21:59:17 72° ENE 22:02:49 10° N
STPSAT 2 (USA 217) 4.5 21:57:45 12° SSW 22:01:56 69° ESE 22:06:25 10° NNE
Cosmos 1242 Rocket 3.4 21:59:22 10° N 22:02:41 32° ENE 22:03:15 31° E
Cosmos 1378 Rocket 3.4 22:01:37 10° N 22:05:57 89° WSW 22:08:06 29° S
Cosmos 1420 Rocket 4.5 22:06:05 29° SE 22:07:57 40° ESE 22:12:48 10° NE
CZ-4 SHROUD 4.3 22:08:16 25° SSW 22:09:36 39° W 22:12:33 10° NNW
TIMED 4.4 22:06:09 14° SSW 22:09:55 87° ESE 22:14:19 10° NNE
Intercosmos 25 3.3 22:12:07 43° SE 22:12:57 54° E 22:16:09 10° NNE
SPOT 1/Viking Rocket 3.6 22:10:27 25° S 22:13:30 81° WSW 22:18:45 10° NNW
ERBS 3.4 22:12:49 10° WNW 22:15:59 33° SW 22:16:36 31° SSW
Cosmos 407 Rocket 4.0 22:13:43 10° NNW 22:18:51 56° WSW 22:21:52 24° S
Cosmos 1238 Rocket 2.7 22:18:08 10° NNW 22:21:12 59° W 22:21:59 43° SSW
Cosmos 1452 Rocket 3.6 22:16:59 10° SSW 22:22:14 79° WNW 22:27:32 10° NNE
Landsat 7 3.8 22:21:42 39° SE 22:23:19 66° ENE 22:28:03 10° N
SPOT 5 4.3 22:19:21 13° SSW 22:23:36 37° W 22:28:32 10° NNW
H-2A R/B 4.4 22:25:08 10° SW 22:28:08 18° W 22:31:07 10° NW
ASTEX 1 4.4 22:28:29 10° NNE 22:32:44 28° E 22:32:54 28° E
Cosmos 2084 3.0 22:32:17 64° S 22:32:45 75° SE 22:36:36 10° NE
BREEZE-M TANK 4.0 22:18:51 10° W 22:32:48 61° N 22:35:56 15° ENE
Cosmos 614 Rocket 4.3 22:30:18 10° N 22:35:17 50° ENE 22:36:32 40° ESE
Spot 4 4.4 22:34:20 39° ESE 22:35:26 46° ENE 22:40:05 10° N
Cosmos 2218 Rocket 4.0 22:32:39 33° SSE 22:35:35 66° E 22:41:56 10° NNE
Cosmos 1140 Rocket 3.4 22:30:55 10° NNW 22:36:05 79° ENE 22:37:36 47° SSE
Terra 1.8 22:37:58 49° SE 22:39:05 66° ENE 22:43:48 10° N
ARGOS 3.7 22:38:34 27° SSW 22:41:15 53° W 22:46:30 10° NNW
DMSP B5D2-2 4.1 22:36:40 10° NNE 22:41:51 62° ESE 22:43:08 47° SSE
ATLAS 5 CENTAUR R/B 3.8 22:38:31 10° NW 22:43:43 29° WSW 22:46:55 19° SSW
DELTA 2 DEB (DPAF) 4.1 22:42:45 52° S 22:43:48 78° WSW 22:48:17 10° NNW
Okean 2 Rocket 3.6 22:42:46 30° SW 22:44:46 57° W 22:49:08 10° N
USA 234 3.2 22:41:40 10° NE 22:48:15 89° SSE 22:54:46 10° SW
Cosmos 2278 Rocket 2.4 22:43:31 12° SSW 22:48:44 70° WNW 22:54:26 10° NNE
Cosmos 1727 Rocket 4.0 22:47:30 10° N 22:53:39 68° E 22:55:27 46° SE
CZ-4C R/B 3.6 22:54:26 53° WSW 22:54:42 54° W 22:58:36 10° NNW
Cosmos 1833 Rocket 3.3 22:50:33 10° NNW 22:55:56 44° ENE 22:57:19 37° E
Cosmos 1850 Rocket 3.9 22:50:54 10° NNW 22:56:14 89° ENE 22:57:23 57° SSE
Cosmos 1825 4.4 22:54:31 13° WSW 22:56:56 23° WNW 23:00:02 10° NNW
Cosmos 1959 Rocket 4.5 22:58:48 35° SSW 23:01:34 78° W 23:07:42 10° N
Timation 2 Rocket 3.8 22:57:46 10° NNW 23:03:47 78° WSW 23:05:20 51° S
Cosmos 1812 3.5 23:01:47 10° N 23:04:51 42° NE 23:04:51 42° NE
Cosmos 2082 Rocket 2.2 23:02:49 10° NNW 23:08:33 71° ENE 23:09:37 56° ESE
COSMOS 2487 4.4 23:10:59 10° NW 23:13:44 24° W 23:13:44 24° W
Cosmos 1741 Rocket 4.1 23:08:54 10° NNW 23:14:06 66° WSW 23:14:51 58° SSW
IGS 5A 4.0 23:18:00 49° W 23:18:00 49° W 23:22:03 10° NNW
Cosmos 2297 3.7 23:16:56 42° SW 23:18:59 78° WNW 23:24:45 10° NNE
DNEPR-1 R/B 3.8 23:15:15 10° NW 23:20:33 64° WSW 23:20:38 64° SW
APEX 4.0 23:22:47 50° W 23:23:13 53° WNW 23:27:59 10° NNE
Cosmos 1339 Rocket 4.4 23:17:50 10° N 23:24:00 85° W 23:25:21 57° S
Cosmos 1821 Rocket 4.3 23:31:30 46° ESE 23:32:00 47° E 23:37:57 10° NNE
Cosmos 1331 Rocket 4.1 23:33:49 59° ENE 23:33:49 59° ENE 23:38:26 10° NNE
USA 229 DEB 3.7 23:26:48 10° NNW 23:33:57 83° NE 23:35:48 54° SE
USA 229 3.7 23:26:54 10° NNW 23:34:03 82° NE 23:35:55 54° SE
Cosmos 1110 Rocket 3.9 23:36:09 76° E 23:36:09 76° E 23:41:15 10° NNE
CZ-4B R/B 4.2 23:38:42 11° NE 23:38:42 11° NE 23:39:02 10° NNE
H-2A R/B 3.4 23:36:42 28° WSW 23:38:00 31° W 23:42:46 10° NW
Cosmos 1536 Rocket 4.5 23:34:50 10° NNW 23:39:02 41° W 23:39:02 41° W
Okean 1 4.0 23:35:30 10° NNW 23:38:43 53° NNW 23:38:43 53° NNW
Iridium 4 Rocket 3.8 23:43:29 10° N 23:49:17 67° E 23:49:35 66° ESE
Cosmos 1934 Rocket 4.0 23:52:21 56° E 23:52:32 56° E 23:58:26 10° NNE
